Regional Weather Roundup
Issued by NWS

Home | Current Version | Previous Version | Graphics & Text | Print | Product List | Glossary On
Versions: 1 2 3 4 5 6 7 8 9 10 11 12 13 14 15 16 17 18 19 20 21 22 23 24 25 26 27 28
000
ASUS45 KTFX 261210
RWRMT
MONTANA REGIONAL WEATHER ROUNDUP
NATIONAL WEATHER SERVICE GREAT FALLS MT
600 AM MDT SUN MAR 26 2017

NOTE: "FAIR" INDICATES FEW OR NO CLOUDS BELOW 12000 FEET WITH NO
SIGNIFICANT WEATHER AND/OR OBSTRUCTIONS TO VISIBILITY.

MTZ001>007-043-261300-
WEST OF THE DIVIDE

CITY           SKY/WX    TMP DP  RH WIND       PRES   REMARKS
KALISPELL      CLOUDY    28  26  92 N3        29.99R
MISSOULA       PTCLDY    31  27  85 N7        30.01S WCI  24
BUTTE          CLOUDY    25  21  85 S6        29.95F WCI  18
MULLAN PASS    CLEAR     23  22  96 S7        29.91S WCI  15
ANACONDA         N/A     27  23  86 CALM      29.97S
DEER LODGE       N/A     28  27  93 W3        29.99S
EUREKA           N/A     30  28  93 SE8       29.99R WCI  23
HAMILTON         N/A     30  28  93 E6        30.00R WCI  24
RONAN            N/A     33  25  73 CALM      30.03R
$$

MTZ008-052>055-261300-
SOUTHWEST MONTANA

CITY           SKY/WX    TMP DP  RH WIND       PRES   REMARKS
BOZEMAN        MOCLDY    30  26  85 SE6       29.95F WCI  24
DILLON         CLEAR     31  20  63 S7        29.94F WCI  24
W YELLOWSTONE  CLOUDY    28  23  80 S7        29.97F WCI  21
ENNIS          CLOUDY    30  28  93 S7        29.99F WCI  23
THREE FORKS      N/A     29  11  47 CALM      29.95F
$$

MTZ009-010-012-014-046-048-049-054-261300-
EAST SLOPES AND CENTRAL MONTANA

CITY           SKY/WX    TMP DP  RH WIND       PRES   REMARKS
CUT BANK       PTCLDY    29  20  69 W9        29.89S WCI  20
GREAT FALLS    CLEAR     34  21  59 SW12      29.91F WCI  25
MALMSTROM AFB  CLEAR     30  23  75 SW10      29.92F WCI  21
HELENA         CLOUDY    36  27  69 S6        29.95F WCI  31
AUGUSTA        MOCLDY    36  10  33 W17       29.89F WCI  25
BOWMANS CRNR   MOCLDY    31  21  67 S8        29.89F WCI  23
CHOTEAU          N/A     34  23  64 N3        29.92S
FAIRFIELD      MOCLDY    31  19  61 SW9       29.90F WCI  23
POWER            N/A     24  19  80 SW5       29.90S
RAYNESFORD       N/A     37  22  54 SW12      29.93S WCI  30
$$

MTZ011-013-016-021-045-047-050-051-261300-
NORTH CENTRAL MONTANA

CITY           SKY/WX    TMP DP  RH WIND       PRES   REMARKS
HAVRE          CLEAR     29  25  85 SW8       29.92S WCI  21
LEWISTOWN      MOCLDY    28  22  78 S7        29.94S WCI  21
N BAR RANCH    CLOUDY    37  21  52 W9        29.94S WCI  31
CHINOOK          N/A     34  23  64 S3        29.93R
DENTON           N/A     30  22  74 SE10      29.90S WCI  21
GEYSER           N/A     28  21  77 W10       29.92R WCI  18
GRASS RANGE      N/A     33  23  65 SW10      29.90R WCI  25
STANFORD         N/A     30  21  70 W6        29.92F WCI  24
WINIFRED         N/A     34  23  64 S8        29.92S WCI  27
$$

MTZ017>020-022>027-061-062-261300-
NORTHEAST MONTANA

CITY           SKY/WX    TMP DP  RH WIND       PRES   REMARKS
GLASGOW        PTCLDY    31  26  82 NW9       29.89R WCI  23
JORDAN           N/A     32  29  88 W7        29.90R WCI  26
SIDNEY         CLOUDY    35  30  82 CALM      29.90R
WOLF POINT     CLEAR     31  27  85 N6        29.88S WCI  25
MALTA          MOCLDY    30  27  86 SW9       29.91R WCI  22
PLENTYWOOD       N/A     39  34  81 E6        29.88F
POPLAR           N/A     34  28  80 SE3       29.89F
$$

MTZ028>42-056>058-261300-
SOUTHCENTRAL AND SOUTHEAST MONTANA

CITY           SKY/WX    TMP DP  RH WIND       PRES   REMARKS
BAKER          CLOUDY    40  37  89 S7        29.91R
BILLINGS       PTCLDY    37  33  85 SW7       29.92R WCI  32
LIVINGSTON     CLOUDY    31  26  82 NW6       29.95R WCI  25
MILES CITY     MOCLDY    40  35  83 S6        29.91S
BIG TIMBER     CLOUDY    32  28  86 NW6       29.96R WCI  26
FORSYTH          N/A     41  37  87 CALM      29.91S
HARLOWTON        N/A     30  23  74 W12       29.94R WCI  20
LAUREL           N/A     35  27  73 SW3       29.92
$$

REGIONAL REPORTS...DAKOTAS

CITY           SKY/WX    TMP DP  RH WIND       PRES   REMARKS
WILLISTON      PTCLDY    35  32  88 CALM      29.89S
MINOT          CLOUDY    38  33  82 SW8       29.89S
DICKINSON      CLOUDY    38  34  85 W3        29.88S
BEACH            N/A    N/A N/A N/A MISG        N/A
TIOGA            N/A     34  34 100 NE5       29.91R
WATFORD CITY     N/A     37  32  81 CALM      29.89S
BISMARCK       CLOUDY    37  34  89 E3        29.93S
GRAND FORKS    CLOUDY    34  33  96 SW10      29.96F WCI  26
FARGO          CLOUDY    34  33  96 CALM      29.98S FOG
BUFFALO SD       N/A     43  37  79 N18       29.82S
RAPID CITY     CLOUDY    41  35  79 N22       29.82F
$$

REGIONAL REPORTS...WYOMING/IDAHO/WASHINGTON

CITY           SKY/WX    TMP DP  RH WIND       PRES   REMARKS
GILLETTE       CLOUDY    39  37  92 N10       29.89S
SHERIDAN       CLOUDY    35  33  92 CALM      29.93R
BUFFALO WY     CLOUDY    37  32  82 NW8       29.92R WCI  31
CODY           MOCLDY    33  25  72 SW8       29.94  WCI  26
YELLOWSTONE LA   N/A     22  20  92 CALM      29.99R
IDAHO FALLS    CLEAR     31  27  85 S8        29.98S WCI  23
SALMON         PTCLDY    27  19  74 CALM      29.98S
BOISE          PTCLDY    41  27  57 SE10      29.95F
SPOKANE        CLOUDY    36  32  85 SE7       29.95F WCI  30
$$

REGIONAL REPORTS...ALBERTA

CITY           SKY/WX    TMP DP  RH WIND       PRES   REMARKS
EDMONTON       CLEAR     32  28  86 W6        29.83R WCI  26
CALGARY        PTCLDY    28  14  54 NE6       29.84R WCI  22
LETHBRIDGE     CLEAR     28  21  74 SW12      29.88R WCI  18
MEDICINE HAT   CLEAR     30  23  74 SW9       29.85S WCI  22
WATERTON GATE    N/A     34  18  51 SW12G18     N/A  WCI  25
CARDSTON         N/A     30  18  59 SW5         N/A
MILK RIVER       N/A     27  23  86 NW9         N/A  WCI  17
$$

REGIONAL REPORTS...SASKATCHEWAN

CITY           SKY/WX    TMP DP  RH WIND       PRES   REMARKS
SWIFT CURRENT  MOCLDY    36  23  60 SW14      29.82S WCI  27
REGINA         PTCLDY    34  32  93 SE9       29.86R WCI  26
SASKATOON      PTCLDY    28  28 100 NE8       29.86S WCI  20
CYPRESS HILLS    N/A     28  16  59 W5          N/A
VAL MARIE        N/A     30  27  86 SW1         N/A
ROCKGLEN         N/A     37  23  56 NW5         N/A
ASSINIBOIA       N/A     28  27  93 SW2         N/A
$$




USA.gov is the U.S. government's official web portal to all federal, state and local government web resources and services.